Regional Weather Roundup
Issued by NWS Charleston, SC

Home | Current Version | Previous Version | Text Only | Print | Product List | Glossary On
Versions: 1 2 3 4 5 6 7 8 9 10 11 12 13 14 15 16 17 18 19 20 21 22 23 24 25 26 27 28 29 30 31 32 33 34 35 36 37 38 39 40 41 42 43 44 45 46 47 48 49 50
000
ASUS42 KCHS 310325
RWRCHS

REGIONAL WEATHER ROUNDUP
NATIONAL WEATHER SERVICE CHARLESTON SC
1100 PM EDT WED JUL 30 2014

NOTE: "FAIR" INDICATES FEW OR NO CLOUDS BELOW 12,000 FEET WITH NO
SIGNIFICANT WEATHER AND/OR OBSTRUCTIONS TO VISIBILITY.

NOT ALL STATIONS ARE QUALITY CONTROLLED BY THE NATIONAL
WEATHER SERVICE. USE DATA WITH CAUTION...ESPECIALLY
DEWPOINT OBSERVATIONS.

SCZ027-030-031-034>040-042>050-310400-
...SOUTH CAROLINA...

CITY           SKY/WX    TMP DP  RH WIND       PRES   REMARKS
N CHARLESTON   PTCLDY    79  71  76 E6        30.03S
WATERFRONT PRK   N/A     82 N/A N/A E17         N/A
FORT JOHNSON   NOT AVBL
MOUNT PLEASANT FAIR      81  70  69 CALM      30.03S
JOHNS ISLAND   PTCLDY    81  70  69 E9        30.03S
PINOPOLIS        N/A     79  70  73 E5        29.96R
MONCKS CORNER    N/A     77  72  83 CALM      30.04R
SUMMERVILLE    FAIR      75  72  88 CALM      30.04S
BEAUFORT MCAS  MOCLDY    82  72  71 SE8       30.01S
BEAUFORT ARPT  CLOUDY    81  73  78 E6        30.01S
HILTON HEAD IS PTCLDY    82  73  74 E6        30.01F
GEORGETOWN     NOT AVBL
WALTERBORO     CLOUDY    73 N/A N/A E3        30.03F
ORANGEBURG     CLOUDY    73  68  84 E3        30.05R
BARNWELL       FAIR      75  68  78 NE3       30.05R
AIKEN          MOCLDY    73  70  88 E5        30.08S
MANNING        FAIR      68 N/A N/A CALM      30.05S
KINGSTREE      NOT AVBL
COLUMBIA       PTCLDY    76  66  71 E5        30.05R
SUMTER         CLOUDY    73  69  85 N3        30.04R
FLORENCE       MOCLDY    75  68  78 CALM      30.05R
MYRTLE BEACH   MOCLDY    81  66  61 E8        30.05R
N MYRTLE BEACH MOCLDY    80  65  59 E6        30.05R

$$

GAZ063-065-086>088-099>101-113>116-118-119-134-136>141-150-310400-
...GEORGIA...

CITY           SKY/WX    TMP DP  RH WIND       PRES   REMARKS
SAVANNAH ARPT  PTCLDY    77  70  79 E8        30.01S
HUNTER AAF     CLEAR     78  73  84 N6        29.99S
FORT STEWART   CLOUDY    77  73  90 E1        29.99S
STATESBORO     NOT AVBL
SYLVANIA       MOCLDY    73  72  96 E3        30.04S
CLAXTON        MOCLDY    77  73  88 E3        30.02R
THOMSON        CLOUDY    79  73  80 E3        30.08R
AUGUSTA-BUSH   MOCLDY    75  69  81 CALM      30.02R
AUGUSTA-DANIEL PTCLDY    78  68  71 E6        30.04R
SWAINSBORO     FAIR      77  73  88 E6        30.02S
VIDALIA          N/A     77  72  83 E7        30.00F
ALMA           CLOUDY    80  70  71 E7        29.99R
WAYCROSS       PTCLDY    81  74  81 SE5       29.99S
JESUP          FAIR      79  73  83 CALM      30.00S
BRUNSWICK      MOCLDY    79  73  83 CALM      30.00R
SAINT SIMONS   CLEAR     81  74  79 E7        29.99R

$$

SCZ027-028-034-036>038-045-046-048>050-GAZ119-141-310400-
...LAKE AND SUPPLEMENTAL COASTAL OBSERVATIONS...

STATION/POSITION TIME  TEMP    WIND        PRES    WAVE   SWELL
                       AIR SEA DIR/SP/G            HT/PER HT/PER/DIR
                 (UTC) (F)     (DEG/KT/KT) (MB)    (FT/S) (FT/S/D)
UPR LAKE MARION  NOT AVBL
WINYAH BAY       0300   81     100/  9     1017.0S
LAKE MURRAY      0200   77      90/  4/  7 1016.9R
ACE BASIN NERRS  0300   78      50/  1     1017.0R
FORT PULASKI     0300   82     110/  7/  9 1016.0S
SAPELO ISLAND    0300   81      90/  6     1016.0S

$$

ANZ835-935-AMZ111-154-330-350-352-354-374-450-454-472-310400-
...C-MAN AND BUOY OBSERVATIONS...

STATION/POSITION TIME  TEMP    WIND        PRES    WAVE   SWELL
                       AIR SEA DIR/SP/G            HT/PER HT/PER/DIR
                 (UTC) (F)     (DEG/KT/KT) (MB)    (FT/S) (FT/S/D)
FOLLY BEACH CMAN 0300   82      90/ 12/ 14 1017.3R
BUOY 41004       0300   82 83   90/ 12/ 16 1016.1R   4/ 5   2/ 7
BUOY 41008       0200   83 85   90/ 16/ 17 1014.8R   3/ 4   2/110/ 8
5E ST. MARYS GA  0300      86                N/A     2/ 4
FRYING PAN BUOY  NOT AVBL
BUOY 41025       0300          VRB 14/ 16  1017.7F   4/ 7   3/ 60/ 7
CAPE LOOKOUT NC  0300   79      60/ 12/ 14 1018.1R
BUOY 41002       NOT AVBL
BUOY 41010       0300   84 85  190/  8/ 10 1015.7R   2/ 4   2/160/ 5
BUOY 41012       NOT AVBL
ST AUGUSTINE FL  0300   83     210/  4/  5 1016.0R
CAPERS NEARSHORE 0200   82     100/ 14/ 17   N/A
FRIPP NEARSHORE  NOT AVBL


$$


USA.gov is the U.S. government's official web portal to all federal, state and local government web resources and services.